GEFSNGP_prec_meanprecacc_228.txt.gz
Total_Precipitation_Accumulation
0.60 0.43 0.34 0.33 0.32 0.30 0.32 0.43 0.77 1.16 1.56 1.87 2.09 2.13 2.00 1.70 1.46 1.46 1.53 1.57 1.51 1.39 1.27 1.11 1.01 1.01 0.98 0.95 0.90 0.86 0.88 0.94 1.03 0.97 0.93 1.00 1.05 0.94 0.84 0.80 0.77 0.78 0.72 0.68
0.50 0.40 0.39 0.46 0.44 0.47 0.50 0.56 0.74 1.11 1.64 1.83 1.82 1.61 1.58 1.53 1.40 1.52 1.68 1.76 1.69 1.56 1.41 1.21 1.07 1.01 0.99 0.95 0.84 0.78 0.82 0.94 1.01 1.00 0.98 1.02 1.08 1.02 0.94 0.88 0.85 0.81 0.76 0.71
0.68 0.50 0.63 1.01 0.80 0.73 0.74 0.74 0.86 1.21 1.41 1.33 1.37 1.37 1.40 1.42 1.47 1.66 1.82 1.80 1.69 1.61 1.46 1.29 1.23 1.10 1.07 1.02 0.89 0.87 0.88 0.89 0.96 1.01 1.06 1.09 1.07 1.04 1.00 0.98 0.96 0.86 0.77 0.74
0.67 0.81 1.36 1.30 0.80 0.73 0.76 0.77 0.74 0.84 0.89 0.98 1.10 1.23 1.39 1.47 1.61 1.80 1.91 1.96 1.90 1.68 1.50 1.32 1.18 1.08 1.02 0.97 0.90 0.92 0.92 0.88 0.85 0.88 0.91 0.91 0.98 1.03 1.00 0.96 0.91 0.85 0.78 0.73
0.89 1.17 1.41 1.22 0.77 0.71 0.88 1.02 0.76 0.68 0.68 0.79 0.87 1.05 1.48 1.62 1.69 1.82 1.89 1.86 1.82 1.66 1.54 1.41 1.24 1.11 1.03 0.99 0.94 0.90 0.86 0.81 0.74 0.71 0.74 0.75 0.83 0.94 1.00 0.97 0.87 0.79 0.72 0.69
1.00 1.41 1.84 1.55 0.70 0.46 0.74 1.36 0.91 0.62 0.54 0.65 0.88 1.22 1.43 1.41 1.46 1.47 1.46 1.40 1.39 1.35 1.30 1.23 1.11 1.01 1.01 1.00 0.92 0.83 0.75 0.68 0.63 0.62 0.67 0.68 0.74 0.85 0.91 0.92 0.81 0.67 0.60 0.60
1.08 1.43 1.66 0.89 0.48 0.52 1.22 1.55 1.05 0.79 0.69 0.75 0.99 1.10 0.99 0.96 1.10 1.16 1.21 1.18 1.12 1.10 1.12 1.09 0.99 0.97 1.00 0.96 0.89 0.72 0.60 0.58 0.60 0.65 0.68 0.67 0.74 0.81 0.79 0.73 0.72 0.65 0.60 0.58
1.22 1.59 1.71 0.68 0.51 0.93 1.11 0.82 0.78 0.77 0.79 0.82 0.80 0.72 0.69 0.75 0.92 1.12 1.26 1.23 1.13 1.08 1.03 0.95 0.91 0.96 0.99 0.91 0.74 0.60 0.58 0.61 0.65 0.65 0.61 0.60 0.71 0.78 0.71 0.69 0.68 0.66 0.64 0.58
1.24 1.43 1.05 0.56 0.55 0.57 0.57 0.56 0.57 0.58 0.61 0.65 0.71 0.71 0.68 0.76 0.89 1.07 1.15 1.17 1.12 1.03 0.93 0.82 0.77 0.81 0.85 0.72 0.55 0.51 0.56 0.65 0.66 0.62 0.68 0.68 0.65 0.65 0.65 0.67 0.59 0.54 0.55 0.52
0.97 0.95 0.69 0.52 0.44 0.41 0.43 0.47 0.50 0.55 0.58 0.65 0.81 0.83 0.79 0.82 0.94 1.05 1.07 0.97 0.89 0.84 0.79 0.69 0.61 0.59 0.58 0.48 0.47 0.52 0.60 0.62 0.60 0.64 0.74 0.72 0.63 0.53 0.51 0.51 0.48 0.44 0.45 0.44
1.22 1.08 0.81 0.56 0.45 0.45 0.44 0.49 0.55 0.64 0.64 0.68 0.74 0.80 0.82 0.83 0.85 0.86 0.85 0.78 0.70 0.68 0.64 0.53 0.49 0.45 0.41 0.38 0.42 0.52 0.55 0.58 0.59 0.60 0.64 0.67 0.58 0.45 0.42 0.37 0.30 0.30 0.32 0.33
1.52 1.19 1.05 0.80 0.61 0.62 0.62 0.61 0.62 0.59 0.56 0.59 0.58 0.59 0.65 0.67 0.69 0.68 0.69 0.65 0.62 0.58 0.54 0.47 0.45 0.42 0.39 0.35 0.38 0.49 0.53 0.51 0.46 0.48 0.50 0.50 0.51 0.45 0.30 0.18 0.14 0.13 0.14 0.18
1.19 0.95 0.86 0.80 0.71 0.71 0.65 0.51 0.45 0.43 0.39 0.43 0.47 0.47 0.48 0.49 0.50 0.52 0.55 0.52 0.50 0.45 0.41 0.42 0.41 0.36 0.36 0.34 0.34 0.40 0.48 0.47 0.39 0.37 0.40 0.41 0.42 0.48 0.43 0.26 0.13 0.10 0.09 0.12
0.79 0.76 0.74 0.58 0.45 0.37 0.30 0.27 0.28 0.30 0.29 0.28 0.31 0.33 0.34 0.34 0.37 0.40 0.45 0.45 0.39 0.34 0.31 0.33 0.34 0.31 0.29 0.30 0.31 0.34 0.35 0.32 0.32 0.38 0.37 0.35 0.34 0.33 0.37 0.43 0.37 0.28 0.17 0.14
0.49 0.50 0.42 0.29 0.21 0.19 0.19 0.20 0.25 0.27 0.26 0.27 0.25 0.25 0.25 0.29 0.32 0.33 0.37 0.38 0.34 0.31 0.29 0.30 0.31 0.29 0.24 0.23 0.26 0.31 0.31 0.29 0.29 0.31 0.31 0.27 0.25 0.25 0.28 0.34 0.36 0.36 0.31 0.23
0.30 0.27 0.24 0.20 0.19 0.18 0.19 0.19 0.24 0.24 0.23 0.23 0.24 0.23 0.22 0.22 0.23 0.28 0.33 0.32 0.32 0.34 0.34 0.31 0.29 0.24 0.19 0.18 0.20 0.22 0.20 0.18 0.22 0.26 0.25 0.22 0.22 0.23 0.25 0.29 0.32 0.32 0.34 0.31
0.28 0.25 0.22 0.21 0.19 0.19 0.19 0.19 0.20 0.18 0.18 0.18 0.18 0.17 0.16 0.17 0.20 0.27 0.30 0.29 0.28 0.29 0.30 0.30 0.24 0.18 0.16 0.15 0.16 0.15 0.16 0.17 0.19 0.19 0.18 0.18 0.19 0.18 0.17 0.22 0.27 0.31 0.28 0.26
0.26 0.25 0.22 0.23 0.21 0.20 0.17 0.15 0.16 0.15 0.13 0.11 0.11 0.12 0.13 0.16 0.20 0.23 0.24 0.24 0.23 0.25 0.27 0.24 0.18 0.15 0.14 0.13 0.12 0.12 0.15 0.17 0.18 0.16 0.16 0.15 0.15 0.15 0.15 0.19 0.23 0.28 0.28 0.27
0.24 0.23 0.18 0.17 0.17 0.16 0.15 0.13 0.13 0.12 0.10 0.10 0.10 0.11 0.13 0.15 0.17 0.19 0.20 0.22 0.25 0.27 0.24 0.18 0.15 0.15 0.14 0.12 0.12 0.13 0.15 0.17 0.17 0.15 0.13 0.13 0.13 0.14 0.15 0.18 0.22 0.25 0.28 0.29
0.19 0.20 0.17 0.13 0.12 0.14 0.14 0.12 0.10 0.10 0.10 0.10 0.11 0.12 0.13 0.15 0.15 0.16 0.20 0.23 0.24 0.20 0.18 0.16 0.15 0.15 0.13 0.12 0.12 0.14 0.14 0.14 0.15 0.16 0.15 0.14 0.13 0.13 0.11 0.12 0.16 0.19 0.23 0.23
0.18 0.19 0.15 0.12 0.13 0.15 0.15 0.13 0.12 0.12 0.12 0.12 0.13 0.15 0.16 0.16 0.15 0.16 0.18 0.21 0.19 0.16 0.15 0.13 0.13 0.15 0.14 0.13 0.12 0.12 0.12 0.12 0.13 0.13 0.12 0.12 0.12 0.11 0.10 0.11 0.14 0.15 0.16 0.18
0.20 0.21 0.16 0.13 0.16 0.17 0.17 0.16 0.14 0.12 0.12 0.12 0.12 0.14 0.16 0.16 0.16 0.16 0.15 0.17 0.15 0.14 0.16 0.15 0.13 0.13 0.13 0.12 0.11 0.11 0.10 0.10 0.10 0.09 0.08 0.08 0.09 0.09 0.09 0.10 0.12 0.13 0.13 0.15
0.23 0.20 0.16 0.14 0.16 0.18 0.17 0.15 0.14 0.13 0.13 0.13 0.12 0.14 0.15 0.16 0.16 0.16 0.15 0.13 0.13 0.12 0.13 0.14 0.14 0.12 0.10 0.08 0.09 0.10 0.08 0.09 0.10 0.09 0.07 0.06 0.08 0.10 0.10 0.10 0.10 0.11 0.12 0.13
0.27 0.22 0.18 0.14 0.16 0.19 0.20 0.18 0.14 0.13 0.14 0.15 0.15 0.15 0.17 0.17 0.17 0.15 0.13 0.12 0.11 0.10 0.09 0.09 0.11 0.08 0.06 0.06 0.07 0.08 0.08 0.08 0.07 0.06 0.05 0.06 0.07 0.09 0.09 0.07 0.07 0.08 0.09 0.10
0.32 0.27 0.20 0.19 0.22 0.24 0.23 0.20 0.18 0.17 0.18 0.20 0.18 0.18 0.19 0.18 0.16 0.13 0.12 0.13 0.13 0.12 0.09 0.07 0.07 0.08 0.07 0.06 0.07 0.07 0.06 0.07 0.06 0.06 0.06 0.07 0.08 0.07 0.07 0.06 0.07 0.07 0.08 0.09
0.41 0.36 0.29 0.26 0.24 0.24 0.22 0.23 0.22 0.22 0.24 0.25 0.23 0.21 0.20 0.17 0.13 0.10 0.11 0.12 0.12 0.11 0.08 0.07 0.07 0.08 0.08 0.07 0.07 0.06 0.06 0.06 0.06 0.06 0.07 0.07 0.06 0.05 0.04 0.05 0.06 0.07 0.07 0.07
0.49 0.43 0.38 0.29 0.22 0.22 0.24 0.26 0.24 0.22 0.21 0.23 0.23 0.20 0.16 0.15 0.12 0.11 0.10 0.12 0.11 0.10 0.08 0.07 0.08 0.07 0.07 0.07 0.07 0.07 0.06 0.06 0.07 0.07 0.06 0.05 0.05 0.05 0.05 0.05 0.06 0.06 0.07 0.07

GEFSNGP_prec_meanprecacc_234.txt.gz
Total_Precipitation_Accumulation
0.60 0.43 0.34 0.33 0.32 0.31 0.33 0.43 0.77 1.17 1.56 1.87 2.10 2.14 2.02 1.72 1.49 1.49 1.58 1.62 1.55 1.41 1.29 1.13 1.03 1.02 0.99 0.96 0.91 0.87 0.90 0.98 1.08 1.01 0.96 1.03 1.07 0.96 0.86 0.83 0.79 0.79 0.74 0.69
0.50 0.40 0.39 0.47 0.45 0.48 0.50 0.57 0.74 1.11 1.64 1.84 1.83 1.62 1.60 1.57 1.44 1.55 1.73 1.79 1.74 1.58 1.43 1.23 1.09 1.02 0.99 0.96 0.85 0.79 0.83 0.95 1.02 1.01 0.99 1.03 1.08 1.03 0.96 0.89 0.86 0.82 0.76 0.71
0.68 0.50 0.63 1.02 0.81 0.74 0.74 0.75 0.87 1.22 1.42 1.34 1.38 1.38 1.43 1.47 1.52 1.71 1.85 1.83 1.73 1.65 1.49 1.31 1.24 1.11 1.07 1.02 0.89 0.87 0.88 0.90 0.96 1.02 1.08 1.10 1.08 1.05 1.01 0.99 0.97 0.87 0.77 0.74
0.67 0.81 1.36 1.31 0.81 0.74 0.77 0.78 0.75 0.85 0.89 0.99 1.11 1.25 1.42 1.51 1.65 1.83 1.93 1.99 1.92 1.71 1.54 1.34 1.19 1.08 1.03 0.97 0.90 0.93 0.92 0.89 0.86 0.89 0.92 0.92 0.98 1.03 1.00 0.97 0.91 0.85 0.78 0.73
0.89 1.18 1.41 1.23 0.78 0.73 0.89 1.02 0.76 0.69 0.68 0.79 0.88 1.06 1.50 1.64 1.71 1.84 1.91 1.88 1.83 1.67 1.56 1.42 1.24 1.11 1.03 0.99 0.95 0.90 0.86 0.82 0.75 0.71 0.75 0.76 0.83 0.94 1.01 0.97 0.87 0.79 0.72 0.69
1.01 1.41 1.84 1.55 0.71 0.46 0.74 1.36 0.91 0.62 0.54 0.66 0.89 1.22 1.44 1.42 1.47 1.48 1.47 1.40 1.39 1.36 1.31 1.24 1.12 1.02 1.01 1.00 0.92 0.83 0.76 0.69 0.64 0.63 0.67 0.68 0.74 0.85 0.91 0.92 0.81 0.67 0.60 0.60
1.08 1.43 1.66 0.89 0.48 0.52 1.22 1.55 1.05 0.79 0.69 0.75 0.99 1.10 1.00 0.97 1.10 1.16 1.21 1.18 1.12 1.11 1.13 1.10 1.00 0.98 1.01 0.97 0.89 0.72 0.60 0.59 0.61 0.65 0.69 0.67 0.74 0.82 0.80 0.74 0.73 0.66 0.61 0.60
1.22 1.60 1.71 0.69 0.51 0.93 1.11 0.82 0.78 0.77 0.79 0.82 0.80 0.72 0.70 0.75 0.92 1.13 1.26 1.24 1.14 1.09 1.04 0.95 0.91 0.97 1.00 0.92 0.74 0.61 0.59 0.62 0.66 0.65 0.62 0.60 0.72 0.78 0.71 0.69 0.69 0.67 0.65 0.60
1.25 1.44 1.06 0.56 0.56 0.58 0.57 0.56 0.57 0.58 0.61 0.65 0.72 0.71 0.68 0.76 0.90 1.07 1.16 1.17 1.12 1.03 0.94 0.83 0.77 0.82 0.85 0.73 0.55 0.52 0.57 0.65 0.67 0.62 0.68 0.68 0.65 0.65 0.65 0.67 0.60 0.55 0.55 0.52
0.98 0.96 0.69 0.52 0.44 0.41 0.43 0.47 0.50 0.56 0.58 0.65 0.81 0.83 0.79 0.82 0.94 1.07 1.09 0.98 0.90 0.85 0.80 0.70 0.62 0.59 0.58 0.49 0.48 0.54 0.61 0.63 0.61 0.64 0.74 0.72 0.63 0.54 0.52 0.52 0.48 0.45 0.46 0.45
1.23 1.09 0.82 0.57 0.45 0.46 0.44 0.49 0.55 0.64 0.64 0.68 0.74 0.80 0.82 0.83 0.85 0.88 0.87 0.80 0.71 0.69 0.65 0.54 0.49 0.46 0.41 0.38 0.43 0.53 0.56 0.59 0.59 0.60 0.65 0.68 0.58 0.46 0.43 0.37 0.30 0.30 0.32 0.34
1.53 1.20 1.07 0.80 0.61 0.62 0.62 0.62 0.62 0.59 0.56 0.59 0.58 0.59 0.65 0.67 0.69 0.69 0.70 0.67 0.63 0.58 0.54 0.47 0.45 0.42 0.39 0.36 0.39 0.50 0.53 0.51 0.46 0.49 0.50 0.52 0.52 0.46 0.31 0.19 0.14 0.13 0.14 0.19
1.20 0.96 0.87 0.80 0.72 0.71 0.65 0.52 0.45 0.43 0.39 0.44 0.47 0.48 0.48 0.49 0.51 0.53 0.57 0.55 0.51 0.46 0.41 0.42 0.41 0.37 0.36 0.34 0.34 0.40 0.49 0.48 0.40 0.38 0.41 0.42 0.43 0.49 0.44 0.26 0.13 0.10 0.09 0.12
0.80 0.77 0.74 0.59 0.45 0.38 0.31 0.28 0.28 0.30 0.29 0.28 0.31 0.33 0.34 0.35 0.38 0.41 0.47 0.46 0.40 0.35 0.31 0.33 0.34 0.32 0.30 0.31 0.32 0.35 0.36 0.32 0.33 0.39 0.39 0.37 0.35 0.34 0.38 0.43 0.38 0.28 0.17 0.14
0.49 0.50 0.43 0.29 0.21 0.20 0.19 0.20 0.25 0.27 0.26 0.27 0.25 0.25 0.25 0.29 0.33 0.34 0.37 0.38 0.34 0.31 0.29 0.30 0.31 0.29 0.24 0.24 0.27 0.32 0.32 0.30 0.31 0.33 0.32 0.28 0.25 0.25 0.28 0.34 0.36 0.36 0.31 0.23
0.30 0.28 0.25 0.21 0.19 0.18 0.19 0.20 0.24 0.24 0.23 0.23 0.24 0.23 0.22 0.22 0.23 0.28 0.33 0.33 0.32 0.34 0.34 0.31 0.29 0.25 0.19 0.19 0.21 0.24 0.22 0.20 0.24 0.27 0.25 0.22 0.22 0.23 0.25 0.29 0.32 0.32 0.34 0.32
0.29 0.26 0.23 0.22 0.20 0.19 0.19 0.19 0.20 0.18 0.19 0.18 0.18 0.17 0.16 0.17 0.20 0.27 0.30 0.29 0.28 0.30 0.30 0.30 0.24 0.18 0.16 0.15 0.17 0.18 0.18 0.19 0.20 0.20 0.18 0.18 0.19 0.19 0.17 0.22 0.27 0.31 0.28 0.26
0.27 0.26 0.23 0.24 0.23 0.21 0.18 0.16 0.17 0.15 0.14 0.12 0.11 0.12 0.14 0.16 0.20 0.24 0.24 0.24 0.23 0.26 0.27 0.25 0.19 0.15 0.15 0.15 0.15 0.13 0.16 0.19 0.18 0.16 0.16 0.15 0.15 0.15 0.16 0.19 0.24 0.28 0.28 0.28
0.25 0.24 0.19 0.18 0.18 0.18 0.16 0.15 0.14 0.13 0.11 0.10 0.11 0.12 0.13 0.16 0.17 0.19 0.21 0.23 0.26 0.28 0.25 0.19 0.16 0.16 0.16 0.14 0.14 0.15 0.15 0.18 0.18 0.15 0.13 0.13 0.13 0.14 0.15 0.18 0.22 0.25 0.28 0.31
0.20 0.21 0.19 0.16 0.14 0.15 0.15 0.13 0.11 0.11 0.11 0.11 0.12 0.13 0.14 0.16 0.15 0.17 0.20 0.24 0.25 0.21 0.18 0.17 0.16 0.16 0.15 0.14 0.14 0.15 0.15 0.15 0.16 0.16 0.15 0.14 0.14 0.13 0.12 0.12 0.16 0.20 0.24 0.24
0.19 0.20 0.16 0.13 0.14 0.16 0.16 0.14 0.13 0.12 0.13 0.13 0.14 0.16 0.17 0.17 0.16 0.17 0.19 0.22 0.20 0.17 0.16 0.14 0.14 0.16 0.15 0.14 0.13 0.12 0.13 0.14 0.14 0.13 0.12 0.12 0.12 0.11 0.10 0.11 0.14 0.15 0.16 0.18
0.20 0.22 0.17 0.14 0.17 0.18 0.17 0.16 0.14 0.12 0.12 0.12 0.13 0.14 0.17 0.17 0.17 0.16 0.15 0.17 0.17 0.16 0.18 0.16 0.14 0.14 0.14 0.12 0.11 0.11 0.11 0.10 0.10 0.10 0.09 0.09 0.09 0.09 0.09 0.10 0.12 0.13 0.13 0.15
0.24 0.21 0.17 0.15 0.17 0.19 0.17 0.16 0.14 0.13 0.13 0.13 0.13 0.14 0.16 0.16 0.17 0.17 0.16 0.15 0.15 0.14 0.15 0.14 0.14 0.13 0.11 0.09 0.10 0.10 0.09 0.10 0.10 0.10 0.08 0.07 0.09 0.10 0.10 0.10 0.11 0.11 0.13 0.13
0.27 0.23 0.19 0.15 0.16 0.20 0.20 0.18 0.14 0.14 0.15 0.16 0.16 0.16 0.17 0.18 0.18 0.16 0.14 0.14 0.13 0.11 0.09 0.10 0.12 0.09 0.07 0.06 0.07 0.09 0.09 0.09 0.08 0.06 0.06 0.06 0.08 0.10 0.09 0.07 0.07 0.08 0.10 0.10
0.34 0.28 0.22 0.21 0.24 0.25 0.24 0.21 0.19 0.18 0.19 0.20 0.19 0.19 0.20 0.19 0.17 0.15 0.14 0.15 0.15 0.13 0.10 0.07 0.09 0.09 0.08 0.07 0.08 0.08 0.07 0.07 0.07 0.06 0.06 0.07 0.08 0.08 0.07 0.06 0.07 0.07 0.08 0.09
0.43 0.39 0.32 0.29 0.27 0.26 0.24 0.24 0.24 0.23 0.25 0.25 0.24 0.22 0.21 0.18 0.14 0.12 0.13 0.15 0.14 0.13 0.10 0.08 0.09 0.10 0.09 0.09 0.09 0.09 0.08 0.07 0.07 0.07 0.08 0.08 0.06 0.05 0.05 0.05 0.07 0.07 0.07 0.07
0.51 0.46 0.42 0.33 0.27 0.25 0.26 0.28 0.25 0.23 0.22 0.24 0.24 0.21 0.18 0.16 0.14 0.12 0.12 0.14 0.13 0.12 0.10 0.08 0.10 0.09 0.08 0.08 0.09 0.10 0.09 0.08 0.08 0.08 0.07 0.06 0.05 0.06 0.05 0.05 0.06 0.07 0.07 0.07

GEFSNGP_prec_meanprecacc_240.txt.gz
Total_Precipitation_Accumulation
0.61 0.43 0.35 0.34 0.33 0.32 0.34 0.44 0.78 1.18 1.57 1.88 2.10 2.15 2.04 1.75 1.50 1.50 1.59 1.63 1.58 1.44 1.31 1.14 1.04 1.03 0.99 0.97 0.91 0.88 0.93 1.05 1.13 1.05 1.00 1.06 1.12 1.00 0.90 0.85 0.80 0.80 0.74 0.69
0.50 0.41 0.39 0.48 0.46 0.49 0.52 0.58 0.75 1.12 1.65 1.84 1.83 1.62 1.62 1.60 1.45 1.57 1.75 1.83 1.78 1.61 1.45 1.25 1.10 1.03 1.00 0.97 0.86 0.80 0.86 1.01 1.07 1.05 1.03 1.05 1.11 1.05 0.97 0.90 0.87 0.83 0.77 0.72
0.69 0.51 0.64 1.03 0.82 0.75 0.75 0.76 0.88 1.25 1.43 1.35 1.39 1.39 1.44 1.49 1.53 1.73 1.88 1.87 1.76 1.67 1.51 1.32 1.25 1.12 1.08 1.03 0.90 0.88 0.89 0.92 1.00 1.05 1.09 1.11 1.09 1.05 1.01 0.99 0.98 0.88 0.78 0.75
0.68 0.81 1.37 1.32 0.81 0.75 0.79 0.80 0.76 0.87 0.91 1.00 1.12 1.25 1.43 1.52 1.66 1.86 1.97 2.02 1.95 1.74 1.56 1.35 1.20 1.10 1.04 0.99 0.92 0.95 0.93 0.90 0.88 0.91 0.94 0.93 0.99 1.03 1.01 0.98 0.92 0.87 0.79 0.74
0.89 1.18 1.41 1.23 0.78 0.73 0.90 1.04 0.77 0.70 0.70 0.81 0.90 1.07 1.53 1.66 1.73 1.87 1.94 1.91 1.86 1.69 1.58 1.44 1.25 1.13 1.05 1.00 0.96 0.91 0.87 0.83 0.76 0.72 0.75 0.76 0.84 0.95 1.02 0.98 0.88 0.80 0.74 0.71
1.01 1.41 1.84 1.55 0.71 0.46 0.74 1.37 0.91 0.63 0.55 0.67 0.90 1.25 1.47 1.45 1.49 1.50 1.49 1.43 1.41 1.36 1.32 1.27 1.13 1.04 1.02 1.01 0.93 0.85 0.77 0.70 0.65 0.64 0.68 0.69 0.75 0.86 0.92 0.94 0.83 0.69 0.62 0.63
1.08 1.43 1.66 0.89 0.48 0.52 1.23 1.56 1.05 0.79 0.69 0.76 1.00 1.12 1.02 0.99 1.12 1.18 1.22 1.19 1.13 1.12 1.14 1.11 1.01 0.99 1.01 0.98 0.90 0.73 0.62 0.60 0.61 0.66 0.69 0.67 0.75 0.83 0.81 0.75 0.75 0.68 0.62 0.61
1.23 1.60 1.72 0.69 0.51 0.93 1.11 0.83 0.79 0.78 0.79 0.82 0.81 0.73 0.71 0.76 0.93 1.14 1.27 1.24 1.14 1.09 1.04 0.96 0.92 0.99 1.02 0.93 0.75 0.62 0.60 0.63 0.67 0.66 0.62 0.61 0.73 0.80 0.73 0.71 0.70 0.68 0.66 0.61
1.26 1.44 1.06 0.56 0.56 0.58 0.58 0.57 0.58 0.58 0.61 0.65 0.72 0.71 0.68 0.77 0.91 1.08 1.17 1.18 1.13 1.03 0.94 0.83 0.78 0.83 0.87 0.74 0.56 0.52 0.58 0.66 0.68 0.63 0.70 0.70 0.67 0.67 0.67 0.69 0.61 0.56 0.56 0.53
0.98 0.96 0.69 0.52 0.45 0.41 0.44 0.48 0.50 0.56 0.58 0.65 0.82 0.84 0.79 0.83 0.95 1.07 1.09 0.99 0.90 0.85 0.80 0.71 0.63 0.60 0.60 0.50 0.48 0.54 0.62 0.64 0.62 0.65 0.76 0.75 0.65 0.56 0.54 0.53 0.49 0.46 0.47 0.46
1.23 1.09 0.82 0.57 0.45 0.46 0.45 0.50 0.55 0.64 0.65 0.68 0.75 0.80 0.82 0.83 0.85 0.88 0.87 0.80 0.72 0.70 0.66 0.55 0.50 0.47 0.42 0.39 0.43 0.54 0.57 0.60 0.60 0.62 0.66 0.71 0.61 0.48 0.44 0.38 0.31 0.31 0.33 0.34
1.54 1.21 1.08 0.82 0.62 0.63 0.63 0.63 0.63 0.60 0.57 0.59 0.58 0.59 0.65 0.68 0.69 0.69 0.71 0.67 0.64 0.59 0.55 0.48 0.46 0.43 0.40 0.36 0.39 0.50 0.54 0.52 0.47 0.50 0.53 0.55 0.55 0.48 0.32 0.19 0.15 0.14 0.14 0.19
1.21 0.97 0.88 0.82 0.73 0.72 0.66 0.52 0.46 0.44 0.40 0.44 0.48 0.48 0.49 0.49 0.51 0.54 0.57 0.55 0.52 0.47 0.42 0.43 0.42 0.37 0.37 0.35 0.35 0.41 0.49 0.49 0.41 0.40 0.44 0.46 0.45 0.50 0.45 0.27 0.13 0.10 0.09 0.12
0.80 0.78 0.75 0.60 0.46 0.38 0.31 0.28 0.28 0.30 0.29 0.28 0.31 0.33 0.35 0.35 0.39 0.42 0.48 0.47 0.41 0.36 0.33 0.35 0.35 0.33 0.31 0.31 0.33 0.35 0.36 0.34 0.36 0.41 0.41 0.39 0.35 0.35 0.38 0.44 0.39 0.28 0.17 0.14
0.50 0.51 0.44 0.30 0.22 0.20 0.20 0.20 0.26 0.28 0.26 0.27 0.25 0.26 0.26 0.29 0.33 0.35 0.39 0.39 0.35 0.32 0.31 0.31 0.31 0.29 0.25 0.24 0.28 0.33 0.34 0.32 0.33 0.35 0.34 0.29 0.26 0.25 0.29 0.35 0.37 0.36 0.32 0.24
0.31 0.29 0.25 0.21 0.20 0.19 0.20 0.21 0.25 0.25 0.23 0.24 0.24 0.24 0.22 0.23 0.23 0.28 0.34 0.33 0.33 0.35 0.35 0.32 0.30 0.25 0.20 0.20 0.22 0.26 0.24 0.23 0.26 0.29 0.26 0.23 0.23 0.24 0.25 0.30 0.32 0.33 0.35 0.32
0.29 0.26 0.23 0.22 0.20 0.20 0.20 0.20 0.21 0.19 0.19 0.19 0.18 0.17 0.16 0.17 0.21 0.27 0.31 0.29 0.29 0.31 0.31 0.31 0.25 0.19 0.17 0.16 0.18 0.19 0.19 0.20 0.21 0.20 0.19 0.19 0.20 0.19 0.18 0.23 0.28 0.32 0.28 0.27
0.28 0.26 0.24 0.25 0.23 0.22 0.19 0.17 0.18 0.16 0.14 0.12 0.12 0.13 0.14 0.17 0.20 0.24 0.25 0.24 0.23 0.26 0.28 0.26 0.20 0.17 0.16 0.16 0.16 0.15 0.17 0.19 0.19 0.17 0.16 0.16 0.16 0.16 0.16 0.20 0.24 0.29 0.29 0.29
0.26 0.24 0.19 0.19 0.19 0.18 0.16 0.15 0.15 0.14 0.12 0.11 0.12 0.13 0.14 0.16 0.18 0.19 0.21 0.23 0.27 0.29 0.26 0.21 0.17 0.17 0.17 0.16 0.15 0.16 0.16 0.18 0.18 0.16 0.14 0.13 0.14 0.16 0.16 0.19 0.22 0.26 0.29 0.31
0.20 0.22 0.19 0.16 0.15 0.16 0.16 0.13 0.11 0.12 0.12 0.11 0.12 0.13 0.15 0.16 0.16 0.18 0.21 0.25 0.26 0.23 0.20 0.18 0.17 0.17 0.15 0.15 0.15 0.16 0.16 0.17 0.17 0.18 0.17 0.16 0.16 0.15 0.13 0.13 0.17 0.20 0.24 0.25
0.19 0.20 0.17 0.14 0.15 0.17 0.16 0.14 0.13 0.13 0.13 0.13 0.15 0.16 0.18 0.17 0.17 0.18 0.21 0.24 0.22 0.19 0.17 0.15 0.15 0.16 0.15 0.14 0.13 0.13 0.13 0.15 0.15 0.15 0.15 0.14 0.14 0.13 0.12 0.12 0.15 0.15 0.17 0.19
0.21 0.22 0.17 0.15 0.17 0.19 0.18 0.17 0.15 0.13 0.13 0.13 0.13 0.15 0.17 0.18 0.18 0.18 0.17 0.19 0.19 0.18 0.20 0.18 0.15 0.15 0.14 0.13 0.11 0.12 0.12 0.11 0.11 0.10 0.10 0.10 0.11 0.11 0.11 0.12 0.14 0.14 0.14 0.16
0.24 0.21 0.17 0.15 0.17 0.19 0.18 0.16 0.14 0.14 0.14 0.14 0.14 0.15 0.16 0.17 0.18 0.19 0.18 0.16 0.17 0.16 0.17 0.16 0.16 0.14 0.11 0.09 0.10 0.11 0.10 0.11 0.11 0.10 0.08 0.08 0.10 0.12 0.11 0.11 0.12 0.12 0.14 0.14
0.28 0.24 0.19 0.15 0.16 0.20 0.20 0.18 0.15 0.14 0.15 0.17 0.17 0.17 0.18 0.19 0.19 0.17 0.14 0.14 0.14 0.12 0.10 0.11 0.13 0.11 0.08 0.07 0.08 0.09 0.09 0.09 0.09 0.08 0.07 0.08 0.10 0.12 0.11 0.09 0.08 0.09 0.10 0.11
0.35 0.29 0.22 0.21 0.25 0.26 0.25 0.21 0.20 0.19 0.20 0.22 0.20 0.20 0.20 0.21 0.19 0.16 0.15 0.16 0.16 0.14 0.11 0.08 0.09 0.10 0.09 0.08 0.09 0.09 0.09 0.08 0.08 0.08 0.08 0.09 0.10 0.10 0.08 0.07 0.08 0.08 0.09 0.10
0.45 0.40 0.34 0.30 0.28 0.27 0.25 0.25 0.25 0.24 0.26 0.27 0.25 0.23 0.23 0.19 0.16 0.13 0.14 0.16 0.15 0.14 0.11 0.09 0.09 0.10 0.10 0.09 0.11 0.10 0.09 0.08 0.08 0.08 0.09 0.09 0.07 0.05 0.05 0.06 0.08 0.08 0.08 0.08
0.53 0.47 0.43 0.35 0.29 0.26 0.28 0.30 0.27 0.25 0.23 0.26 0.25 0.22 0.19 0.17 0.15 0.13 0.13 0.15 0.14 0.13 0.11 0.09 0.10 0.10 0.09 0.09 0.11 0.11 0.10 0.09 0.09 0.10 0.09 0.07 0.06 0.07 0.06 0.06 0.08 0.09 0.09 0.08

GEFSNGP_prec_meanprecacc_246.txt.gz
Total_Precipitation_Accumulation
0.61 0.44 0.35 0.34 0.34 0.32 0.35 0.46 0.82 1.22 1.61 1.91 2.13 2.18 2.07 1.78 1.52 1.51 1.60 1.64 1.59 1.45 1.33 1.16 1.06 1.04 1.02 0.98 0.93 0.90 0.96 1.08 1.16 1.10 1.06 1.12 1.16 1.05 0.93 0.88 0.82 0.81 0.75 0.70
0.51 0.41 0.39 0.48 0.47 0.51 0.54 0.59 0.77 1.14 1.68 1.87 1.84 1.64 1.65 1.63 1.47 1.58 1.76 1.84 1.79 1.65 1.47 1.27 1.12 1.05 1.04 1.00 0.88 0.82 0.88 1.03 1.09 1.09 1.07 1.09 1.14 1.08 0.99 0.92 0.89 0.84 0.79 0.74
0.70 0.51 0.65 1.04 0.83 0.78 0.79 0.80 0.92 1.28 1.46 1.36 1.41 1.41 1.47 1.52 1.55 1.74 1.90 1.89 1.80 1.71 1.54 1.35 1.27 1.15 1.13 1.06 0.92 0.90 0.92 0.95 1.03 1.08 1.11 1.13 1.11 1.07 1.03 1.02 1.01 0.91 0.80 0.77
0.70 0.83 1.39 1.33 0.81 0.76 0.81 0.84 0.81 0.89 0.91 1.01 1.13 1.27 1.44 1.54 1.67 1.87 1.99 2.06 1.98 1.76 1.58 1.37 1.22 1.13 1.07 1.01 0.94 0.97 0.96 0.92 0.93 0.94 0.95 0.95 1.01 1.06 1.04 1.01 0.96 0.89 0.82 0.76
0.91 1.20 1.43 1.24 0.78 0.73 0.91 1.06 0.80 0.73 0.71 0.81 0.90 1.08 1.54 1.67 1.74 1.89 1.99 1.96 1.90 1.72 1.59 1.46 1.27 1.15 1.06 1.02 0.98 0.92 0.89 0.86 0.81 0.76 0.78 0.80 0.88 0.99 1.06 1.02 0.92 0.84 0.76 0.73
1.03 1.44 1.87 1.57 0.71 0.47 0.75 1.40 0.94 0.65 0.57 0.68 0.91 1.27 1.50 1.46 1.50 1.53 1.53 1.46 1.43 1.38 1.34 1.28 1.15 1.07 1.06 1.04 0.96 0.87 0.79 0.72 0.67 0.69 0.72 0.74 0.80 0.91 0.96 0.99 0.88 0.73 0.65 0.66
1.10 1.46 1.69 0.91 0.49 0.53 1.26 1.60 1.09 0.86 0.74 0.78 1.03 1.14 1.04 1.00 1.13 1.20 1.24 1.21 1.14 1.13 1.17 1.13 1.03 1.01 1.04 1.00 0.92 0.76 0.65 0.62 0.63 0.68 0.72 0.71 0.80 0.89 0.87 0.81 0.79 0.71 0.66 0.64
1.25 1.64 1.75 0.70 0.52 0.96 1.16 0.86 0.81 0.81 0.81 0.84 0.83 0.74 0.72 0.78 0.94 1.14 1.28 1.25 1.15 1.10 1.06 0.98 0.94 1.01 1.03 0.95 0.77 0.63 0.61 0.64 0.68 0.68 0.64 0.64 0.78 0.86 0.78 0.76 0.74 0.72 0.70 0.64
1.28 1.47 1.08 0.58 0.57 0.59 0.58 0.58 0.60 0.60 0.62 0.67 0.73 0.72 0.69 0.78 0.91 1.09 1.17 1.19 1.14 1.04 0.95 0.85 0.80 0.87 0.90 0.77 0.57 0.53 0.59 0.68 0.69 0.65 0.72 0.74 0.72 0.72 0.72 0.73 0.64 0.58 0.59 0.55
0.99 0.97 0.70 0.52 0.45 0.42 0.44 0.48 0.51 0.57 0.60 0.66 0.83 0.85 0.81 0.84 0.96 1.08 1.10 1.00 0.91 0.86 0.81 0.72 0.65 0.63 0.62 0.51 0.49 0.55 0.64 0.67 0.64 0.67 0.78 0.78 0.69 0.59 0.56 0.56 0.52 0.49 0.50 0.48
1.25 1.11 0.83 0.57 0.46 0.47 0.45 0.50 0.56 0.65 0.66 0.70 0.76 0.81 0.83 0.85 0.87 0.89 0.88 0.81 0.73 0.70 0.67 0.56 0.51 0.48 0.42 0.39 0.44 0.55 0.58 0.62 0.63 0.64 0.69 0.75 0.66 0.51 0.46 0.40 0.33 0.33 0.37 0.37
1.57 1.23 1.09 0.83 0.62 0.63 0.63 0.63 0.64 0.62 0.59 0.61 0.60 0.61 0.66 0.69 0.71 0.71 0.72 0.68 0.65 0.60 0.55 0.48 0.46 0.43 0.40 0.37 0.40 0.52 0.56 0.54 0.50 0.53 0.56 0.58 0.58 0.50 0.33 0.20 0.15 0.14 0.15 0.20
1.22 0.98 0.89 0.82 0.73 0.72 0.66 0.53 0.47 0.45 0.41 0.45 0.49 0.48 0.49 0.50 0.52 0.54 0.58 0.56 0.53 0.48 0.43 0.44 0.43 0.38 0.38 0.36 0.35 0.42 0.52 0.52 0.43 0.41 0.46 0.48 0.47 0.53 0.47 0.28 0.14 0.10 0.09 0.12
0.81 0.78 0.76 0.60 0.46 0.39 0.32 0.28 0.28 0.31 0.30 0.29 0.31 0.34 0.35 0.36 0.39 0.42 0.49 0.48 0.41 0.36 0.34 0.36 0.37 0.34 0.31 0.31 0.34 0.38 0.39 0.36 0.37 0.43 0.42 0.40 0.37 0.37 0.40 0.46 0.41 0.30 0.18 0.15
0.51 0.52 0.45 0.31 0.23 0.21 0.20 0.21 0.26 0.28 0.27 0.28 0.26 0.27 0.26 0.30 0.34 0.35 0.40 0.39 0.35 0.33 0.31 0.32 0.33 0.31 0.26 0.26 0.30 0.35 0.36 0.34 0.35 0.37 0.35 0.31 0.28 0.27 0.30 0.37 0.39 0.38 0.32 0.25
0.32 0.30 0.26 0.22 0.21 0.19 0.21 0.22 0.26 0.26 0.24 0.25 0.26 0.25 0.24 0.24 0.24 0.29 0.35 0.34 0.34 0.36 0.36 0.34 0.32 0.26 0.21 0.22 0.24 0.28 0.27 0.24 0.27 0.30 0.27 0.24 0.25 0.27 0.27 0.31 0.34 0.35 0.36 0.33
0.30 0.27 0.24 0.23 0.21 0.21 0.21 0.21 0.22 0.20 0.20 0.20 0.19 0.18 0.17 0.18 0.22 0.29 0.32 0.30 0.30 0.32 0.33 0.33 0.27 0.21 0.19 0.18 0.20 0.21 0.22 0.21 0.21 0.21 0.19 0.20 0.22 0.22 0.20 0.25 0.29 0.33 0.29 0.27
0.28 0.26 0.24 0.25 0.24 0.22 0.19 0.18 0.19 0.16 0.15 0.13 0.12 0.14 0.15 0.18 0.23 0.26 0.27 0.26 0.25 0.28 0.30 0.28 0.22 0.19 0.18 0.18 0.18 0.16 0.18 0.20 0.20 0.17 0.17 0.16 0.17 0.18 0.18 0.22 0.26 0.31 0.30 0.30
0.26 0.25 0.20 0.19 0.19 0.18 0.17 0.16 0.15 0.14 0.13 0.12 0.12 0.14 0.15 0.18 0.20 0.21 0.23 0.25 0.29 0.31 0.28 0.23 0.19 0.19 0.19 0.17 0.16 0.17 0.17 0.19 0.19 0.16 0.14 0.14 0.15 0.17 0.17 0.20 0.23 0.26 0.30 0.33
0.21 0.22 0.20 0.16 0.15 0.16 0.16 0.14 0.12 0.12 0.12 0.12 0.13 0.15 0.17 0.18 0.17 0.19 0.24 0.27 0.28 0.25 0.21 0.19 0.18 0.18 0.16 0.16 0.16 0.17 0.17 0.17 0.17 0.18 0.18 0.16 0.17 0.16 0.14 0.14 0.18 0.22 0.26 0.27
0.20 0.21 0.18 0.15 0.16 0.17 0.17 0.15 0.14 0.14 0.14 0.14 0.15 0.18 0.19 0.19 0.18 0.20 0.23 0.26 0.23 0.20 0.18 0.16 0.15 0.17 0.17 0.16 0.15 0.14 0.14 0.15 0.15 0.16 0.15 0.15 0.16 0.14 0.13 0.14 0.17 0.18 0.19 0.21
0.22 0.22 0.18 0.15 0.18 0.20 0.18 0.17 0.15 0.14 0.13 0.14 0.14 0.16 0.19 0.19 0.19 0.19 0.19 0.21 0.20 0.19 0.20 0.18 0.15 0.15 0.15 0.14 0.13 0.13 0.13 0.12 0.12 0.11 0.11 0.11 0.12 0.13 0.12 0.14 0.16 0.17 0.16 0.19
0.26 0.22 0.18 0.16 0.19 0.20 0.19 0.17 0.15 0.15 0.15 0.15 0.15 0.16 0.18 0.18 0.20 0.20 0.19 0.18 0.19 0.18 0.18 0.17 0.16 0.15 0.12 0.10 0.11 0.13 0.12 0.12 0.12 0.11 0.09 0.09 0.11 0.13 0.13 0.13 0.14 0.14 0.16 0.17
0.30 0.26 0.21 0.17 0.18 0.22 0.22 0.19 0.15 0.15 0.16 0.18 0.18 0.18 0.19 0.21 0.20 0.17 0.15 0.16 0.17 0.16 0.14 0.12 0.14 0.11 0.09 0.07 0.09 0.11 0.12 0.12 0.10 0.09 0.09 0.09 0.11 0.13 0.13 0.10 0.10 0.11 0.13 0.14
0.37 0.32 0.25 0.24 0.27 0.28 0.27 0.24 0.21 0.20 0.21 0.24 0.21 0.21 0.22 0.22 0.21 0.17 0.16 0.17 0.18 0.16 0.13 0.10 0.10 0.10 0.09 0.09 0.10 0.11 0.11 0.11 0.11 0.10 0.10 0.11 0.12 0.12 0.11 0.10 0.10 0.11 0.13 0.13
0.48 0.44 0.37 0.33 0.30 0.29 0.27 0.28 0.27 0.26 0.28 0.30 0.28 0.25 0.24 0.21 0.16 0.14 0.16 0.17 0.17 0.15 0.11 0.09 0.10 0.11 0.10 0.10 0.11 0.11 0.11 0.10 0.10 0.11 0.11 0.11 0.09 0.08 0.08 0.09 0.11 0.11 0.12 0.11
0.56 0.51 0.47 0.38 0.31 0.28 0.29 0.33 0.30 0.27 0.26 0.30 0.28 0.24 0.20 0.18 0.16 0.15 0.15 0.16 0.16 0.14 0.12 0.10 0.11 0.11 0.10 0.09 0.11 0.13 0.12 0.11 0.11 0.12 0.11 0.09 0.08 0.09 0.08 0.08 0.11 0.12 0.12 0.11